Regional Weather Roundup
Issued by NWS

Home | Current Version | Previous Version | Graphics & Text | Print | Product List | Glossary On
Versions: 1 2 3 4 5 6 7 8 9 10 11 12 13 14 15 16 17 18 19 20 21 22 23 24 25 26 27 28 29 30 31 32 33 34 35 36 37 38 39 40 41 42 43 44 45 46 47 48 49 50
000
ASUS43 KDTX 011310
RWRMI
MICHIGAN HOURLY REGIONAL WEATHER ROUNDUP
NATIONAL WEATHER SERVICE DETROIT/PONTIAC MI
900 AM EDT TUE SEP 01 2015

NOTE: "FAIR" INDICATES FEW OR NO CLOUDS BELOW 12,000 FEET WITH NO
SIGNIFICANT WEATHER AND/OR OBSTRUCTION TO VISIBILITY.

MIZ047>049-052>055-059>063-066>070-074>076-081>083-011400-
SOUTHEAST LOWER MICHIGAN

CITY           SKY/WX    TMP DP  RH WIND       PRES   REMARKS
ADRIAN         SUNNY     69  67  93 SW3       30.12S FOG
ALMA             N/A     66  66 100 CALM      30.09S FOG
ANN ARBOR      SUNNY     70  68  93 CALM      30.10S FOG
BAD AXE        SUNNY     65  65 100 W3        30.09S FOG
DETROIT CITY   SUNNY     73  68  84 SW5       30.10S HAZE
DETROIT        SUNNY     73  68  84 S3        30.11R HAZE
FLINT          MOSUNNY   69  66  90 CALM      30.10S FOG
GROSSE ILE     SUNNY     73  72  94 CALM      30.09S FOG
HILLSDALE      SUNNY     73  73 100 CALM      30.12S
HOWELL         SUNNY     69  68  96 SW3       30.11R FOG

CITY           SKY/WX    TMP DP  RH WIND       PRES   REMARKS
JACKSON        SUNNY     71  68  90 SW7       30.12R FOG
LAMBERTVILLE   SUNNY     73  70  92 W3        30.12S FOG
LANSING        SUNNY     70  67  90 SW3       30.10R
LAPEER         NOT AVBL
MASON          SUNNY     69  67  92 CALM      30.11R FOG
MONROE         SUNNY     70  67  89 CALM      30.10S FOG
MT. CLEMENS    SUNNY     69  68  96 CALM      30.08R FOG
PONTIAC        SUNNY     70  67  90 CALM      30.10S FOG
PORT HOPE        N/A     67  65  93 SW6       30.06S
PORT HURON     SUNNY     64  64 100 CALM      30.10S FOG
TRI CITIES     SUNNY     67  64  90 SW3       30.10R FOG
YPSILANTI      SUNNY     75  72  90 CALM      30.11S FOG
$$
MIZ043>046-050>051-056>058-064>065-071>073-077>080-011400-
SOUTHWEST LOWER MICHIGAN

CITY           SKY/WX    TMP DP  RH WIND       PRES   REMARKS
BATTLE CREEK   SUNNY     71  69  93 S5        30.11R FOG
BENTON HARBOR  MOSUNNY   72  69  90 S3        30.08R FOG
BIG RAPIDS     SUNNY     61  60  97 CALM      30.08S
COLDWATER      SUNNY     72  71  98 SW5       30.12R FOG
HOLLAND        SUNNY     71  69  93 S3        30.08S FOG
GRAND RAPIDS   MOSUNNY   70  68  93 CALM      30.09R FOG
KALAMAZOO      SUNNY     71  68  90 S6        30.11R FOG
MARSHALL       SUNNY     71  69  95 SW3       30.11R FOG
MUSKEGON       PTSUNNY   72  67  84 S3        30.07R HAZE
$$
MIZ016>042-011400-
NORTHERN LOWER MICHIGAN

CITY           SKY/WX    TMP DP  RH WIND       PRES   REMARKS
ALPENA         SUNNY     67  64  90 SW3       30.06R
BEAVER ISLAND  PTSUNNY   69  67  92 SW9G16    30.02S FOG
BELLAIRE       SUNNY     66  64  96 CALM      30.05S FOG
CADILLAC       FOG       64  62  95 CALM      30.08S VSB 1/2
CHARLEVOIX     SUNNY     68  68  98 S3        30.06S FOG
FRANKFORT      PTSUNNY   73  68  86 CALM      30.04S
GAYLORD        FOG       65  65 100 SW5       30.08R VSB 1
GRAYLING       FOG       62  62  99 CALM      30.08S VSB 1/4
HARBOR SPRINGS SUNNY     67  65  94 SW3       30.04R FOG
HOUGHTON LAKE  SUNNY     65  64  97 CALM      30.09S FOG
MANISTEE       MOSUNNY   63  61  94 E3        30.05F
OSCODA         SUNNY     64  64  97 SW3       30.06R FOG
PELLSTON       SUNNY     70  67  90 CALM      30.04R
TRAVERSE CITY  SUNNY     70  66  87 SW5       30.04R FOG
$$
MIZ007>008-015-011400-
EASTERN UPPER MICHIGAN

CITY           SKY/WX    TMP DP  RH WIND       PRES   REMARKS
KINROSS        CLOUDY    66  66 100 SW6       30.01S
MACKINAC ISLAN MOSUNNY   68  67  94 SW8       30.02S FOG
NEWBERRY       MOSUNNY   67  67  97 SW10      30.00S FOG
S. S. MARIE    FOG       66  65  96 CALM      30.00S VSB 3/4
$$
MIZ004>006-011>014-085-011400-
CENTRAL UPPER MICHIGAN

CITY           SKY/WX    TMP DP  RH WIND       PRES   REMARKS
MANISTIQUE     PTSUNNY   65  64  97 SW7       30.00S FOG
ESCANABA       CLOUDY    64  63  94 CALM      29.98F VSB<1/4
MENOMINEE      SUNNY     70  64  83 S3        29.99S
SAWYER-GWINN   FOG       64  63  94 SW3       30.00R VSB 1/4
$$
MIZ001>003-009>011-084-011400-
WESTERN UPPER MICHIGAN

CITY           SKY/WX    TMP DP  RH WIND       PRES   REMARKS
IRON MOUNTAIN  MOSUNNY   66  64  93 SE3       29.98F FOG
HOUGHTON       MOSUNNY   70  68  93 S5        29.91S FOG
IRONWOOD       PTSUNNY   73  70  88 S7        29.91R
$$

ABBREVIATIONS USED IN REMARKS
   TC - TEMPERATURE IN CELSIUS
  WCI - WIND CHILL INDEX
   HX - HEAT INDEX
  VSB - VISIBILITY




USA.gov is the U.S. government's official web portal to all federal, state and local government web resources and services.